International Skating Union - Official Site

ISU World Cup Seoul
November 21-23, 2014

Draw | Lap Times | Index | World Cup

Referee: Erik  ØSMUNDSET  (NOR)
Starter: Roman  DANILOV  (RUS)
StartTime: EndTime: Air Temp: Ice Temp: Humidity:
15:00 15:51 15.9℃ -5.8℃ 37
Result 5000m Ladies Division A
Rankings as of Nov 23 2014 3:56PM
Rank: No.: Name: Nation: Time: Behind: Points:
1 29 Claudia  Pechstein GER GER 7:07.77200m - 20.94 - (20.9)
600m - 54.34 - (33.4)
1000m - 1:28.40 - (34.0)
1400m - 2:02.49 - (34.0)
1800m - 2:36.26 - (33.7)
2200m - 3:09.89 - (33.6)
2600m - 3:43.77 - (33.8)
3000m - 4:17.80 - (34.0)
3400m - 4:51.81 - (34.0)
3800m - 5:25.74 - (33.9)
4200m - 5:59.96 - (34.2)
4600m - 6:34.14 - (34.1)
5000m - 7:07.77 - (33.6)
100
2 23 Martina  Sábliková CZE CZE 7:13.08200m - 21.16 - (21.1)
600m - 54.48 - (33.3)
1000m - 1:28.79 - (34.3)
1400m - 2:03.40 - (34.6)
1800m - 2:37.59 - (34.1)
2200m - 3:11.61 - (34.0)
2600m - 3:45.62 - (34.0)
3000m - 4:19.89 - (34.2)
3400m - 4:54.10 - (34.2)
3800m - 5:28.60 - (34.5)
4200m - 6:03.13 - (34.5)
4600m - 6:37.98 - (34.8)
5000m - 7:13.08 - (35.1)
5.31 80
3 3 Ivanie  Blondin CAN CAN 7:14.53200m - 21.11 - (21.1)
600m - 54.33 - (33.2)
1000m - 1:28.63 - (34.3)
1400m - 2:03.00 - (34.3)
1800m - 2:36.88 - (33.8)
2200m - 3:11.07 - (34.1)
2600m - 3:45.01 - (33.9)
3000m - 4:19.13 - (34.1)
3400m - 4:53.47 - (34.3)
3800m - 5:28.07 - (34.6)
4200m - 6:02.82 - (34.7)
4600m - 6:38.12 - (35.3)
5000m - 7:14.53 - (36.4)
6.76 70
4 70 Diane  Valkenburg NED NED 7:17.81200m - 21.15 - (21.1)
600m - 54.89 - (33.7)
1000m - 1:29.62 - (34.7)
1400m - 2:04.25 - (34.6)
1800m - 2:38.30 - (34.0)
2200m - 3:12.16 - (33.8)
2600m - 3:46.45 - (34.2)
3000m - 4:20.74 - (34.2)
3400m - 4:55.04 - (34.3)
3800m - 5:29.74 - (34.7)
4200m - 6:04.79 - (35.0)
4600m - 6:40.64 - (35.8)
5000m - 7:17.81 - (37.1)
10.04 60
5 76 Jorien  Voorhuis NED NED 7:19.54200m - 21.00 - (21.0)
600m - 55.30 - (34.3)
1000m - 1:30.71 - (35.4)
1400m - 2:05.70 - (34.9)
1800m - 2:40.28 - (34.5)
2200m - 3:14.93 - (34.6)
2600m - 3:49.63 - (34.7)
3000m - 4:24.34 - (34.7)
3400m - 4:59.07 - (34.7)
3800m - 5:33.86 - (34.7)
4200m - 6:08.93 - (35.0)
4600m - 6:44.05 - (35.1)
5000m - 7:19.54 - (35.4)
11.77 50
6 67 Yvonne  Nauta NED NED 7:22.61200m - 20.96 - (20.9)
600m - 54.51 - (33.5)
1000m - 1:28.59 - (34.0)
1400m - 2:02.87 - (34.2)
1800m - 2:37.08 - (34.2)
2200m - 3:11.49 - (34.4)
2600m - 3:45.98 - (34.4)
3000m - 4:20.60 - (34.6)
3400m - 4:55.48 - (34.8)
3800m - 5:30.96 - (35.4)
4200m - 6:06.96 - (36.0)
4600m - 6:43.99 - (37.0)
5000m - 7:22.61 - (38.6)
14.84 45
7 93 Yuliya  Skokova RUS RUS 7:24.53200m - 21.51 - (21.5)
600m - 57.01 - (35.5)
1000m - 1:32.26 - (35.2)
1400m - 2:07.62 - (35.3)
1800m - 2:42.84 - (35.2)
2200m - 3:17.92 - (35.0)
2600m - 3:52.71 - (34.7)
3000m - 4:27.83 - (35.1)
3400m - 5:02.60 - (34.7)
3800m - 5:37.83 - (35.2)
4200m - 6:13.24 - (35.4)
4600m - 6:48.88 - (35.6)
5000m - 7:24.53 - (35.6)
16.76 40
8 28 Bente  Kraus GER GER 7:25.62200m - 22.15 - (22.1)
600m - 56.87 - (34.7)
1000m - 1:31.81 - (34.9)
1400m - 2:06.79 - (34.9)
1800m - 2:41.99 - (35.2)
2200m - 3:17.35 - (35.3)
2600m - 3:52.83 - (35.4)
3000m - 4:28.19 - (35.3)
3400m - 5:03.80 - (35.6)
3800m - 5:39.48 - (35.6)
4200m - 6:15.19 - (35.7)
4600m - 6:50.58 - (35.3)
5000m - 7:25.62 - (35.0)
17.85 35
9 50 Bo-Reum  Kim KOR KOR 7:26.63200m - 21.54 - (21.5)
600m - 56.05 - (34.5)
1000m - 1:30.74 - (34.6)
1400m - 2:05.91 - (35.1)
1800m - 2:41.31 - (35.4)
2200m - 3:17.01 - (35.7)
2600m - 3:52.94 - (35.9)
3000m - 4:29.04 - (36.1)
3400m - 5:05.03 - (35.9)
3800m - 5:41.31 - (36.2)
4200m - 6:16.26 - (34.9)
4600m - 6:51.43 - (35.1)
5000m - 7:26.63 - (35.2)
18.86 30
10 34 Shoko  Fujimura JPN JPN 7:27.82200m - 22.03 - (22.0)
600m - 56.49 - (34.4)
1000m - 1:31.76 - (35.2)
1400m - 2:07.13 - (35.3)
1800m - 2:42.78 - (35.6)
2200m - 3:18.31 - (35.5)
2600m - 3:53.93 - (35.6)
3000m - 4:29.29 - (35.3)
3400m - 5:05.12 - (35.8)
3800m - 5:41.02 - (35.9)
4200m - 6:17.25 - (36.2)
4600m - 6:52.90 - (35.6)
5000m - 7:27.82 - (34.9)
20.05 25
11 86 Anna  Chernova RUS RUS 7:29.59200m - 21.70 - (21.7)
600m - 55.83 - (34.1)
1000m - 1:30.69 - (34.8)
1400m - 2:05.26 - (34.5)
1800m - 2:39.78 - (34.5)
2200m - 3:14.87 - (35.0)
2600m - 3:50.19 - (35.3)
3000m - 4:26.10 - (35.9)
3400m - 5:02.34 - (36.2)
3800m - 5:39.00 - (36.6)
4200m - 6:15.71 - (36.7)
4600m - 6:52.77 - (37.0)
5000m - 7:29.59 - (36.8)
21.82 21
12 43 Nana  Takagi JPN JPN DQ200m - 21.26 - (21.2)
600m - 55.09 - (33.8)
1000m - 1:29.36 - (34.2)
1400m - 2:04.30 - (34.9)
1800m - 2:38.95 - (34.6)
2200m - 3:13.88 - (34.9)
2600m - 3:48.79 - (34.9)
3000m - 4:24.01 - (35.2)
3400m - 4:59.26 - (35.2)
3800m - 5:34.54 - (35.2)
4200m - 6:10.45 - (35.9)
4600m - 6:47.05 - (36.6)
5000m - 7:23.45 - (36.4)
0